Date,TemperatureHighF,TemperatureAvgF,TemperatureLowF,DewpointHighF,DewpointAvgF,DewpointLowF,HumidityHigh,HumidityAvg,HumidityLow,PressureMaxIn,PressureMinIn,WindSpeedMaxMPH,WindSpeedAvgMPH,GustSpeedMaxMPH,PrecipitationSumIn
2012-1-1,51.6,44.2,35.1,47.1,40.8,34.0,98,88,67,30.09,29.65,10,0,10,0.13
2012-1-2,47.5,39.0,30.9,45.5,25.4,18.9,94,59,43,29.79,29.64,8,1,10,0.00
2012-1-3,31.1,25.3,15.3,23.9,11.4,1.8,75,55,41,30.12,29.78,16,1,17,0.00
2012-1-4,27.3,20.3,12.9,14.7,6.6,1.6,71,56,34,30.22,29.96,9,1,9,0.00
2012-1-5,41.5,32.2,23.7,25.3,20.6,14.4,75,62,48,29.96,29.82,8,0,8,0.00
2012-1-6,51.3,40.3,29.7,33.3,29.7,23.2,83,67,47,29.95,29.72,10,0,11,0.00
2012-1-7,61.5,46.6,33.1,41.0,34.5,29.5,89,65,39,29.96,29.69,9,0,10,0.00
2012-1-8,44.4,38.8,30.6,30.9,25.8,19.8,80,60,48,30.30,29.96,10,0,10,0.00
2012-1-9,41.5,33.2,27.9,29.3,22.0,16.7,83,64,37,30.32,29.98,6,0,7,0.00
2012-1-10,47.1,37.5,28.2,32.2,27.5,22.6,86,68,53,29.99,29.84,6,0,6,0.00
2012-1-11,46.2,37.2,27.7,39.9,30.6,25.2,93,78,53,30.10,29.84,10,0,13,0.07
2012-1-12,44.2,42.0,39.2,43.2,40.9,38.3,97,96,92,29.84,29.38,23,1,23,1.42
2012-1-13,48.2,36.1,28.0,47.8,29.4,14.7,99,78,56,29.78,29.23,15,2,17,0.17
2012-1-14,33.4,29.1,25.2,20.7,17.6,12.9,70,62,52,30.08,29.78,10,1,11,0.00
2012-1-15,25.2,19.9,15.3,13.3,2.9,-2.6,62,48,32,30.58,30.07,10,1,13,0.00
2012-1-16,35.2,24.1,12.4,31.5,12.8,1.4,93,62,47,30.60,30.15,10,1,11,0.00
2012-1-17,45.9,39.3,33.3,45.3,37.7,31.5,98,94,83,30.15,29.52,8,0,8,0.36
2012-1-18,49.5,36.1,22.3,47.1,21.8,6.6,98,57,41,30.18,29.53,14,1,14,0.00
2012-1-19,36.9,26.4,16.3,28.4,17.2,5.9,84,68,50,30.26,29.92,10,0,10,0.00
2012-1-20,36.9,29.0,24.1,25.7,14.5,9.1,75,55,41,30.29,29.92,11,1,11,0.00
2012-1-21,26.6,23.8,18.7,22.5,18.7,9.7,92,82,51,30.31,29.99,11,1,12,0.00
2012-1-22,31.8,24.6,14.0,28.0,19.3,9.0,86,80,71,30.54,30.31,7,0,7,0.00
2012-1-23,51.1,39.7,30.9,50.7,38.5,27.1,99,95,85,30.43,29.88,9,0,10,0.87
2012-1-24,54.1,46.1,38.5,50.2,40.5,33.4,99,82,60,30.10,29.88,8,0,8,0.00
2012-1-25,44.4,39.1,35.1,33.6,28.8,27.1,75,67,55,30.30,30.10,9,1,10,0.00
2012-1-26,39.7,35.6,33.3,39.0,32.1,27.7,97,87,74,30.23,29.83,5,0,5,0.24
2012-1-27,57.4,47.8,39.7,56.8,44.4,32.5,99,89,66,29.83,29.31,12,1,17,0.42
2012-1-28,46.8,41.0,33.3,34.9,30.1,17.6,89,66,40,30.03,29.81,11,1,11,0.00
2012-1-29,44.1,37.7,31.3,23.5,18.4,14.0,63,46,37,30.18,30.00,12,1,12,0.00
2012-1-30,40.1,35.3,29.3,26.4,19.4,14.4,67,53,38,30.29,29.98,9,1,9,0.00
2012-1-31,59.9,46.8,32.7,35.1,29.6,20.3,66,52,36,30.24,29.99,10,1,10,0.00
2012-2-1,62.6,53.4,46.2,46.9,40.5,33.8,86,62,51,30.00,29.84,8,1,9,0.06
2012-2-2,47.8,40.3,34.0,37.8,31.7,24.1,90,72,62,30.22,29.98,9,0,9,0.00
2012-2-3,45.0,35.1,27.9,25.0,22.0,19.2,73,60,40,30.44,30.22,9,0,9,0.00
2012-2-4,46.6,39.2,30.7,29.5,26.5,23.5,79,61,47,30.32,30.09,5,0,5,0.00
2012-2-5,40.5,32.5,27.7,23.5,21.5,18.3,78,64,46,30.17,30.09,7,0,8,0.00
2012-2-6,53.1,39.5,26.6,30.7,26.2,20.1,79,60,39,30.15,29.94,11,1,11,0.00
2012-2-7,49.1,40.6,33.3,31.6,28.9,25.2,78,64,48,30.23,29.92,6,0,9,0.00
2012-2-8,35.8,32.5,28.9,28.8,19.4,10.9,90,59,37,30.32,30.08,3,0,7,0.00
2012-2-9,46.9,34.7,26.8,28.8,23.8,19.0,95,67,36,30.12,30.04,7,0,7,0.00
2012-2-10,46.2,36.7,27.7,30.4,25.6,22.6,84,65,42,30.13,29.91,12,0,13,0.00
2012-2-11,38.5,35.2,30.6,33.8,28.9,21.0,95,78,61,29.91,29.55,11,0,14,0.07
2012-2-12,32.5,26.2,19.8,22.3,12.2,-0.2,77,55,40,29.95,29.65,13,2,14,0.00
2012-2-13,46.8,35.0,25.9,21.7,18.6,14.2,66,52,30,30.02,29.90,7,1,9,0.00
2012-2-14,45.9,38.9,33.4,36.1,22.1,15.6,84,52,31,30.11,30.00,8,0,8,0.00
2012-2-15,44.2,40.4,33.4,38.3,35.3,31.3,92,82,74,30.27,30.19,3,0,3,0.02
2012-2-16,40.5,36.0,29.8,39.7,34.2,28.6,97,93,72,30.29,30.01,2,0,3,0.27
2012-2-17,52.0,43.1,34.0,43.2,34.3,23.9,98,74,42,30.02,29.90,8,0,8,0.27
2012-2-18,48.0,39.0,30.0,37.2,27.5,21.4,94,65,37,30.08,29.88,10,0,12,0.05
2012-2-19,46.2,37.2,29.7,30.9,25.2,20.8,89,63,39,30.08,29.95,11,0,13,0.00
2012-2-20,46.6,34.9,27.3,23.2,20.0,15.4,74,56,32,30.34,29.96,11,1,11,0.00
2012-2-21,45.0,36.3,24.4,39.0,28.5,19.0,90,74,54,30.36,29.84,14,1,14,0.00
2012-2-22,57.9,48.3,39.2,42.8,36.5,29.3,89,66,36,29.84,29.47,11,1,11,0.00
2012-2-23,58.8,47.2,40.5,42.6,35.7,28.9,96,67,39,29.76,29.36,12,1,12,0.00
2012-2-24,43.2,38.6,34.5,41.0,36.3,28.4,98,92,56,29.77,29.31,13,1,13,0.87
2012-2-25,46.8,39.6,32.7,33.4,24.6,13.5,77,56,36,29.99,29.37,13,2,17,0.00
2012-2-26,44.6,34.4,28.6,22.6,18.2,14.0,76,52,34,30.43,29.99,12,1,13,0.00
2012-2-27,54.9,41.1,26.8,39.2,32.1,21.7,90,71,51,30.43,30.06,12,1,13,0.00
2012-2-28,50.2,43.0,35.2,31.5,25.7,23.0,69,51,38,30.38,30.10,15,1,15,0.00
2012-2-29,39.9,37.4,33.6,38.1,31.8,22.1,97,81,60,30.37,29.75,12,1,16,0.39
2012-3-1,39.7,37.8,34.3,38.8,36.4,30.9,97,95,87,29.97,29.65,11,1,15,0.18
2012-3-2,39.9,35.1,31.6,37.0,31.8,27.7,96,87,82,30.13,29.80,11,1,11,0.15
2012-3-3,57.6,47.2,38.1,49.6,38.1,20.3,98,75,28,29.81,29.42,8,1,12,0.20
2012-3-4,45.7,40.2,34.2,27.1,24.0,20.7,70,53,39,29.73,29.55,8,0,8,0.00
2012-3-5,44.6,35.0,27.9,23.2,15.5,2.8,65,46,25,30.37,29.73,9,1,9,0.00
2012-3-6,44.4,33.0,24.6,28.8,16.7,6.4,89,53,28,30.61,30.37,8,0,8,0.00
2012-3-7,60.6,44.8,29.8,44.1,34.3,25.3,89,69,36,30.58,30.30,11,1,11,0.00
2012-3-8,67.5,57.6,44.1,52.7,48.9,41.5,94,74,57,30.30,29.80,16,2,17,0.00
2012-3-9,63.0,44.1,34.9,51.6,28.9,20.5,86,57,34,30.25,29.78,14,1,16,0.05
2012-3-10,43.5,34.7,28.2,22.8,17.3,11.3,74,50,34,30.52,30.25,9,1,10,0.00
2012-3-11,61.5,45.0,28.9,37.6,27.0,19.6,78,52,30,30.52,30.30,10,1,12,0.00
2012-3-12,70.3,54.0,37.9,44.4,37.6,31.8,81,56,30,30.33,30.11,11,0,11,0.00
2012-3-13,73.0,58.0,50.0,59.9,51.9,43.5,97,81,59,30.11,29.88,11,0,11,0.08
2012-3-14,70.3,58.4,46.6,53.8,38.2,21.9,94,54,18,30.19,29.94,10,0,11,0.00
2012-3-15,48.0,44.4,41.9,43.0,41.3,39.9,95,89,81,30.32,30.19,10,1,10,0.00
2012-3-16,48.9,43.5,41.4,46.4,42.1,40.3,97,95,88,30.30,30.11,6,0,6,0.04
2012-3-17,60.4,48.9,39.4,52.5,44.1,38.5,99,84,63,30.36,30.17,9,0,9,0.00
2012-3-18,66.7,51.5,43.5,54.5,47.0,41.9,96,86,63,30.36,30.18,9,0,9,0.00
2012-3-19,75.2,57.9,43.7,60.4,50.6,42.6,98,79,56,30.22,30.14,10,0,11,0.00
2012-3-20,73.8,59.6,49.8,63.0,55.4,48.6,97,87,65,30.31,30.21,9,0,10,0.00
2012-3-21,67.3,59.7,56.3,61.3,57.7,55.8,98,93,80,30.36,30.27,8,0,8,0.01
2012-3-22,76.3,62.5,55.2,64.0,58.3,54.7,99,88,62,30.28,30.05,8,0,8,0.01
2012-3-23,72.9,62.0,52.5,60.6,53.1,42.8,98,75,52,30.09,30.01,10,0,11,0.00
2012-3-24,61.0,55.0,49.3,46.2,37.7,30.7,81,54,35,30.09,29.98,11,1,12,0.00
2012-3-25,52.9,47.1,44.2,45.0,41.8,37.8,93,82,65,29.99,29.71,8,0,9,0.04
2012-3-26,54.9,45.5,34.9,46.9,28.7,8.6,97,58,24,30.09,29.66,14,1,15,0.00
2012-3-27,52.5,39.3,28.9,26.1,9.0,-2.0,61,30,12,30.26,30.09,12,1,12,0.00
2012-3-28,65.7,51.0,36.5,51.1,37.3,20.8,93,60,41,30.15,29.53,10,1,10,0.08
2012-3-29,59.4,52.1,44.1,50.9,38.4,29.3,82,60,46,29.99,29.55,11,1,13,0.00
2012-3-30,57.2,46.7,37.0,39.0,27.4,18.9,80,49,24,30.06,29.94,6,1,7,0.00
2012-3-31,44.8,40.8,38.7,40.1,38.4,37.2,96,91,76,29.99,29.86,9,0,9,0.35
2012-4-1,52.9,45.5,39.9,45.7,40.7,37.2,97,85,57,29.90,29.61,9,0,9,0.39
2012-4-2,57.6,47.0,36.9,45.3,32.7,19.4,97,63,29,29.86,29.58,12,1,14,0.06
2012-4-3,65.5,49.6,32.7,29.1,23.2,14.2,74,40,15,29.92,29.74,10,0,13,0.00
2012-4-4,68.7,56.9,43.9,35.8,29.7,21.2,63,37,21,29.75,29.49,14,1,14,0.00
2012-4-5,59.2,47.9,35.4,33.8,29.2,25.9,81,50,30,29.92,29.70,8,1,11,0.00
2012-4-6,59.9,46.4,33.4,31.1,25.5,19.0,76,47,22,30.01,29.86,9,1,12,0.00
2012-4-7,61.9,49.3,33.8,28.9,24.3,17.2,72,40,19,30.06,29.91,14,1,14,0.00
2012-4-8,66.0,54.4,39.7,35.1,26.3,19.8,55,35,19,30.00,29.62,10,1,10,0.00
2012-4-9,65.1,55.6,46.9,35.2,26.4,20.5,54,34,19,29.70,29.57,14,1,14,0.00
2012-4-10,61.3,51.6,42.6,39.4,32.1,23.9,67,48,33,29.77,29.63,11,0,11,0.00
2012-4-11,55.2,47.5,40.8,38.3,34.1,28.8,82,61,40,29.87,29.75,7,0,7,0.01
2012-4-12,59.5,51.1,42.6,41.4,36.1,31.5,77,58,36,30.11,29.87,10,1,13,0.00
2012-4-13,64.8,52.4,40.6,40.8,34.6,27.1,86,55,25,30.19,30.08,7,0,7,0.00
2012-4-14,72.7,57.9,41.9,45.7,35.7,29.1,77,46,21,30.20,29.99,13,0,13,0.00
2012-4-15,77.9,67.4,57.9,60.4,54.9,41.0,80,65,43,30.01,29.93,7,0,7,0.00
2012-4-16,85.8,69.5,57.4,63.0,58.4,54.7,93,71,44,30.00,29.89,10,0,10,0.00
2012-4-17,80.1,69.4,59.9,59.9,45.7,32.2,92,48,20,30.14,29.88,8,1,8,0.00
2012-4-18,62.6,55.4,47.8,44.4,36.1,30.9,75,49,34,30.25,30.10,9,0,9,0.00
2012-4-19,69.3,56.6,48.4,50.9,47.3,42.8,95,74,40,30.11,29.98,9,1,9,0.05
2012-4-20,71.6,58.3,46.0,57.2,49.6,45.0,97,75,52,30.02,29.85,10,1,11,0.00
2012-4-21,74.5,62.4,55.4,61.5,57.5,54.1,98,85,62,29.85,29.65,13,1,13,0.03
2012-4-22,58.6,49.1,46.6,55.9,46.7,43.3,97,91,79,29.78,29.31,11,1,13,2.38
2012-4-23,54.5,50.1,45.3,54.1,46.9,37.9,99,89,75,29.38,29.13,13,1,13,0.79
2012-4-24,60.3,49.4,41.4,46.2,36.3,27.0,84,63,30,29.69,29.36,13,1,14,0.00
2012-4-25,61.2,49.8,37.0,42.6,35.8,30.2,90,61,32,29.90,29.69,4,0,12,0.00
2012-4-26,60.6,49.2,36.9,53.6,44.6,34.5,98,85,64,29.91,29.56,9,0,9,0.05
2012-4-27,55.2,48.2,40.8,54.7,35.4,27.3,98,62,44,30.12,29.56,17,1,17,0.01
2012-4-28,60.1,49.3,35.4,34.7,29.6,24.4,80,49,27,30.22,30.06,6,0,6,0.00
2012-4-29,63.9,52.1,37.6,36.1,27.1,17.6,73,41,20,30.23,30.03,10,0,10,0.00
2012-4-30,61.2,49.9,36.0,43.3,30.8,18.7,80,51,24,30.34,30.19,10,1,11,0.00
2012-5-1,64.0,55.6,49.8,59.2,51.8,43.2,98,87,73,30.19,29.95,6,0,6,0.70
2012-5-2,52.5,50.9,48.7,50.5,48.4,46.4,94,91,87,30.19,30.07,8,0,8,0.04
2012-5-3,55.9,53.2,50.9,54.5,52.2,49.3,98,96,93,30.19,30.06,4,0,4,0.33
2012-5-4,73.8,60.5,52.5,65.5,58.0,52.0,99,92,74,30.10,29.83,5,0,7,0.40
2012-5-5,61.5,57.8,54.9,59.0,55.6,54.0,97,93,85,30.04,29.87,6,0,6,0.00
2012-5-6,65.1,57.4,48.6,55.4,52.0,45.5,97,83,64,30.11,30.02,10,0,10,0.00
2012-5-7,66.0,55.1,46.8,53.2,48.4,44.2,97,80,55,30.14,30.08,11,0,11,0.03
2012-5-8,64.6,58.3,53.2,56.7,53.0,46.6,97,83,71,30.09,29.83,13,1,13,0.13
2012-5-9,64.6,61.1,57.4,64.2,60.5,56.5,99,98,97,29.83,29.56,5,0,6,0.69
2012-5-10,66.2,57.4,46.2,57.4,48.9,38.8,99,76,44,29.81,29.47,14,1,14,0.44
2012-5-11,69.8,57.3,44.8,44.8,39.3,32.9,85,54,29,30.10,29.81,8,0,10,0.00
2012-5-12,79.3,62.6,45.7,51.4,44.2,37.2,83,56,23,30.20,30.09,4,0,9,0.00
2012-5-13,82.0,67.8,54.1,59.9,54.2,46.4,90,66,29,30.16,30.05,9,0,9,0.00
2012-5-14,70.2,65.5,62.8,63.1,61.1,59.0,95,86,70,30.13,30.06,9,0,10,0.02
2012-5-15,64.0,62.6,60.6,63.1,60.7,57.7,99,94,83,30.11,29.93,7,0,7,0.68
2012-5-16,75.9,66.0,61.3,68.9,63.8,61.0,99,93,76,29.94,29.80,8,0,10,0.06
2012-5-17,71.1,62.4,52.5,61.2,47.3,39.2,97,61,34,30.12,29.88,9,1,13,0.00
2012-5-18,71.1,59.2,47.5,54.5,46.9,43.3,92,66,44,30.22,30.12,6,0,6,0.00
2012-5-19,77.5,63.3,47.8,55.8,49.2,44.6,92,64,32,30.17,30.09,4,0,7,0.00
2012-5-20,79.0,65.3,53.2,56.5,46.1,30.0,93,56,19,30.23,30.14,10,0,12,0.00
2012-5-21,62.1,60.1,58.6,61.5,56.7,43.3,99,90,53,30.21,29.99,9,0,9,2.39
2012-5-22,65.1,62.9,59.5,64.8,62.5,59.2,99,99,98,29.99,29.79,5,0,9,0.27
2012-5-23,73.6,66.6,61.5,68.7,64.8,60.6,100,94,82,30.04,29.84,8,0,8,0.01
2012-5-24,66.7,63.4,60.3,65.3,62.6,59.7,99,97,93,30.19,30.04,6,0,6,0.16
2012-5-25,70.9,64.0,59.7,68.7,63.4,59.4,100,98,93,30.20,30.10,7,0,7,0.02
2012-5-26,87.1,73.1,66.7,76.5,70.3,66.2,100,92,65,30.12,30.04,7,0,7,0.51
2012-5-27,80.2,71.4,62.6,68.0,65.5,61.7,99,84,58,30.16,29.99,8,0,8,0.06
2012-5-28,86.7,76.0,66.0,75.7,70.3,65.5,99,84,63,29.99,29.87,6,0,6,0.06
2012-5-29,89.8,77.4,66.9,77.0,70.8,65.5,98,81,62,29.88,29.66,11,1,13,0.27
2012-5-30,76.3,70.6,64.9,71.1,66.6,61.7,99,88,63,29.75,29.69,6,0,7,0.01
2012-5-31,80.1,70.2,61.2,63.5,57.4,50.9,97,67,39,29.91,29.69,8,0,10,0.00
2012-6-1,72.3,63.9,57.4,61.0,55.4,49.8,93,74,63,30.01,29.80,15,1,15,0.00
2012-6-2,76.5,66.5,59.9,67.8,59.8,52.0,99,81,53,29.80,29.64,12,0,12,2.21
2012-6-3,77.5,62.6,52.9,61.7,55.2,50.4,94,79,43,29.75,29.61,10,0,11,0.12
2012-6-4,61.7,57.0,52.5,56.8,52.7,47.1,95,86,67,29.80,29.60,10,0,10,0.14
2012-6-5,64.9,57.3,49.6,54.7,50.8,46.4,93,80,62,29.93,29.78,8,0,8,0.00
2012-6-6,72.0,61.5,50.2,57.9,54.0,48.9,98,78,51,29.99,29.91,7,0,7,0.00
2012-6-7,77.2,65.7,55.9,62.6,56.9,45.9,98,77,37,29.96,29.87,7,0,8,0.09
2012-6-8,81.3,68.0,55.2,61.9,58.4,54.3,99,75,43,29.92,29.79,8,0,10,0.01
2012-6-9,75.0,66.7,61.3,66.4,61.4,57.2,95,83,67,29.96,29.83,4,0,5,0.00
2012-6-10,82.9,71.9,64.2,70.3,65.7,62.8,97,82,61,30.17,29.96,6,0,7,0.01
2012-6-11,76.8,68.5,62.4,65.1,61.0,54.1,95,78,48,30.24,30.15,9,0,9,0.00
2012-6-12,72.7,66.4,62.1,66.7,64.3,59.4,98,93,80,30.17,29.89,10,0,11,0.80
2012-6-13,69.4,65.9,63.7,66.7,64.7,63.1,99,96,88,30.04,29.85,4,0,11,0.51
2012-6-14,74.7,67.4,61.0,65.3,62.0,58.3,96,84,69,30.23,30.04,8,0,8,0.00
2012-6-15,77.0,68.2,58.3,62.4,56.8,51.4,96,70,45,30.29,30.22,7,0,8,0.00
2012-6-16,78.1,67.2,56.7,61.0,56.9,50.7,96,73,40,30.32,30.21,11,1,11,0.00
2012-6-17,70.5,63.7,55.8,61.0,57.4,53.1,91,81,64,30.23,30.08,7,0,8,0.00
2012-6-18,69.4,62.0,53.1,59.9,55.7,51.6,96,81,63,30.15,30.08,7,0,7,0.00
2012-6-19,76.5,67.5,57.7,67.6,62.9,55.6,95,86,71,30.16,30.05,8,0,8,0.00
2012-6-20,93.9,80.7,65.5,77.9,72.0,64.2,99,77,55,30.06,29.89,4,0,4,0.00
2012-6-21,93.9,84.3,73.8,75.0,72.5,70.0,94,69,50,29.91,29.74,5,0,5,0.00
2012-6-22,91.9,77.6,68.5,77.5,71.4,67.6,98,82,56,29.81,29.71,11,0,11,0.38
2012-6-23,84.0,74.3,64.9,69.6,64.2,56.8,99,74,44,29.96,29.78,8,0,8,0.01
2012-6-24,83.7,72.7,59.7,68.0,60.1,53.6,96,68,39,29.99,29.87,7,0,7,0.03
2012-6-25,73.0,66.2,57.9,70.3,64.7,57.0,98,95,74,29.87,29.63,8,0,8,1.18
2012-6-26,72.1,63.8,53.1,60.3,54.9,51.1,98,74,55,29.75,29.65,9,0,11,0.01
2012-6-27,81.1,70.8,59.9,59.2,54.1,50.2,80,57,35,29.80,29.68,7,0,8,0.00
2012-6-28,86.9,75.1,61.9,67.6,61.3,54.7,85,64,43,29.81,29.68,5,0,5,0.00
2012-6-29,92.5,80.1,69.1,78.1,70.9,63.9,97,75,52,29.71,29.59,4,0,4,0.25
2012-6-30,92.1,81.0,69.4,71.6,66.3,62.6,89,63,39,29.75,29.63,5,0,5,0.00
2012-7-1,93.6,79.4,68.5,74.8,68.8,64.9,92,72,45,29.83,29.73,8,0,8,0.00
2012-7-2,85.8,76.1,64.8,66.4,61.8,59.2,87,63,44,29.90,29.83,8,0,8,0.00
2012-7-3,83.7,69.5,64.6,66.6,62.2,60.3,90,79,54,29.93,29.88,4,0,4,0.00
2012-7-8,90.3,84.6,75.9,69.6,66.0,60.8,78,55,38,29.86,29.77,7,0,7,0.00
2012-7-9,85.6,75.5,65.8,64.8,61.3,57.7,85,63,40,29.95,29.84,9,0,9,0.00
2012-7-10,83.8,74.1,63.0,66.2,61.1,55.2,92,66,39,30.07,29.94,9,0,9,0.00
2012-7-11,84.9,75.6,68.0,70.9,66.4,63.1,94,75,53,30.17,30.06,10,0,10,0.00
2012-7-12,88.9,76.3,66.4,68.9,64.7,56.3,97,71,38,30.18,30.11,10,0,12,0.00
2012-7-13,86.9,76.8,68.0,71.6,67.2,64.0,90,73,55,30.18,30.12,7,0,7,0.00
2012-7-14,87.4,77.6,68.7,70.2,67.4,63.7,96,73,48,30.17,30.09,8,0,8,0.02
2012-7-15,84.7,76.4,71.4,76.8,71.8,66.2,98,86,72,30.14,29.90,8,0,9,1.79
2012-7-16,90.0,79.3,69.6,75.7,71.5,68.7,99,79,54,29.91,29.75,4,0,6,0.01
2012-7-17,95.9,82.2,70.5,72.1,69.0,66.2,91,67,40,29.82,29.71,9,0,9,0.00
2012-7-18,99.9,81.0,73.6,80.4,74.2,71.6,98,82,45,29.87,29.73,7,0,7,0.77
2012-7-19,74.7,71.8,68.4,73.0,66.2,58.3,99,83,61,29.98,29.84,8,0,8,0.01
2012-7-20,69.3,64.8,61.5,66.7,63.3,60.4,98,95,88,30.04,29.92,8,0,8,0.98
2012-7-21,76.3,68.4,60.4,64.8,60.8,51.3,98,79,45,30.11,30.02,7,0,7,0.00
2012-7-22,83.5,72.0,61.3,67.1,62.5,59.7,97,74,47,30.14,30.08,12,1,12,0.00
2012-7-23,84.9,74.6,66.7,75.9,70.9,64.6,98,89,70,30.10,29.75,10,0,11,0.56
2012-7-24,90.3,79.6,69.6,77.2,70.0,62.6,98,75,52,29.78,29.56,8,0,8,0.00
2012-7-25,84.2,74.0,63.0,64.8,58.7,53.2,86,60,41,29.87,29.72,10,0,11,0.00
2012-7-26,88.9,75.6,67.6,75.9,69.0,61.5,97,81,62,29.78,29.58,9,0,9,0.49
2012-7-29,73.8,71.3,68.9,70.7,69.4,67.6,97,94,89,30.04,29.96,4,-29,4,0.38
2012-7-30,80.4,72.0,66.6,70.5,67.3,64.8,98,86,68,30.11,30.03,6,0,6,0.00
2012-7-31,77.2,70.5,65.7,69.8,66.6,64.4,97,88,73,30.09,29.90,7,0,7,0.00
2012-8-1,81.0,72.2,66.2,75.2,70.4,64.9,98,94,78,29.92,29.82,7,0,8,0.19
2012-8-2,90.0,77.8,68.2,75.6,71.4,67.6,99,82,51,29.90,29.81,8,0,8,0.01
2012-8-3,91.2,79.8,70.2,77.9,73.5,69.1,98,83,56,30.07,29.89,12,0,12,0.00
2012-8-4,89.2,79.9,71.8,78.4,74.0,69.6,98,83,55,30.18,30.07,10,1,10,0.00
2012-8-5,88.2,80.1,73.4,79.9,76.0,72.3,97,88,74,30.18,29.91,13,1,17,0.51
2012-8-6,85.5,76.9,67.3,74.3,68.2,60.8,99,77,47,30.00,29.93,7,0,7,0.25
2012-8-7,81.9,72.2,62.1,66.9,63.8,60.1,96,76,51,30.01,29.94,6,0,6,0.00
2012-8-8,86.0,75.8,66.4,74.5,70.0,65.1,98,84,56,29.98,29.91,7,0,7,0.00
2012-8-9,89.1,78.5,70.3,76.1,72.5,69.1,98,83,53,29.94,29.84,10,1,10,0.00
2012-8-10,79.3,75.8,72.3,76.8,73.8,71.1,97,94,86,29.88,29.73,6,0,8,0.77
2012-8-11,87.1,77.8,71.1,77.0,73.4,70.3,99,87,69,29.89,29.77,12,1,12,0.00
2012-8-12,87.4,77.8,69.4,72.7,67.7,63.0,95,73,47,29.92,29.85,7,0,10,0.00
2012-8-13,84.9,74.8,65.1,68.0,63.9,61.3,92,70,46,29.98,29.90,6,0,6,0.00
2012-8-14,80.1,72.1,65.1,72.0,67.8,63.1,96,87,69,29.96,29.86,7,0,7,0.03
2012-8-15,81.7,72.9,68.2,73.6,70.6,67.6,98,93,75,29.88,29.81,7,0,7,0.82
2012-8-16,84.0,73.6,66.0,70.5,65.9,61.0,99,79,49,29.89,29.83,9,0,9,0.00
2012-8-17,89.4,75.6,63.3,72.7,66.8,61.3,96,76,47,29.87,29.74,9,0,11,0.00
2012-8-18,77.9,69.1,62.2,68.7,63.8,58.6,98,84,56,29.92,29.81,7,0,7,0.72
2012-8-19,72.7,66.0,57.9,61.3,58.5,55.0,93,78,59,29.97,29.90,5,0,5,0.00
2012-8-20,78.1,70.0,61.0,65.1,62.0,59.2,96,77,54,29.91,29.82,6,0,6,0.00
2012-8-21,82.0,71.3,63.1,65.3,62.2,56.8,94,75,44,30.08,29.91,5,0,5,0.00
2012-8-22,83.5,72.4,62.8,69.1,64.4,61.3,97,78,51,30.12,30.06,8,0,9,0.00
2012-8-23,85.5,73.1,63.5,70.2,65.4,62.4,97,79,47,30.15,30.07,7,0,8,0.00
2012-8-24,85.5,74.0,64.6,69.6,64.6,60.4,97,75,46,30.17,30.09,5,0,7,0.00
2012-8-25,83.7,73.4,66.9,72.9,67.2,59.7,98,82,61,30.27,30.16,7,0,7,0.00
2012-8-26,81.7,71.4,64.6,69.3,65.7,62.4,96,83,62,30.31,30.21,6,0,6,0.00
2012-8-27,81.3,72.7,64.9,74.1,69.5,63.5,97,90,70,30.22,29.93,8,0,8,0.25
2012-8-28,86.7,77.5,68.7,74.5,69.1,61.3,97,78,50,29.93,29.77,7,0,10,0.16
2012-8-29,77.9,69.4,61.0,61.3,57.0,52.0,88,67,42,30.00,29.87,8,0,8,0.00
2012-8-30,83.7,68.9,56.1,60.1,56.2,50.0,96,68,33,30.08,29.99,5,0,5,0.00
2012-8-31,93.2,76.9,61.5,66.2,61.5,53.6,92,63,27,30.04,29.86,7,0,8,0.00
2012-9-1,88.3,77.8,70.3,71.8,67.7,62.6,89,72,52,30.05,29.88,8,0,8,0.00
2012-9-2,82.2,74.4,68.2,71.4,68.7,66.0,97,83,65,30.07,29.98,12,0,12,0.46
2012-9-3,73.6,70.7,67.3,71.1,66.8,62.2,98,88,72,30.16,30.06,7,0,7,0.00
2012-9-4,79.2,73.6,69.4,75.7,71.6,66.7,98,94,85,30.09,29.82,13,0,13,0.24
2012-9-5,81.1,75.8,70.2,77.2,73.1,67.8,98,91,74,29.83,29.74,6,0,6,0.18
2012-9-6,79.7,71.8,66.0,71.6,68.4,65.1,97,90,73,29.89,29.80,4,0,4,0.00
2012-9-7,86.7,74.9,66.6,75.7,70.8,66.0,98,88,64,29.91,29.80,10,0,10,0.23
2012-9-8,81.9,72.2,63.7,76.6,70.6,62.8,98,95,84,29.85,29.55,16,1,17,2.12
2012-9-9,77.9,67.7,61.9,64.8,60.8,55.8,99,80,51,29.86,29.74,6,0,7,0.01
2012-9-10,73.8,63.5,54.5,58.6,52.7,47.3,90,70,44,30.12,29.86,11,0,11,0.00
2012-9-11,72.9,59.4,48.0,53.2,49.2,45.5,95,71,42,30.26,30.12,7,0,7,0.00
2012-9-12,80.2,65.6,53.2,61.7,55.8,51.8,97,74,43,30.35,30.26,7,0,7,0.00
2012-9-13,80.8,67.8,56.5,63.9,59.4,55.0,97,77,48,30.35,30.26,7,0,8,0.00
2012-9-14,80.1,68.7,58.3,65.7,61.3,57.2,98,79,49,30.27,30.06,11,0,11,0.00
2012-9-15,73.9,65.2,55.6,62.2,55.8,50.4,94,73,48,30.11,30.03,9,0,9,0.01
2012-9-16,74.1,61.9,53.4,57.7,53.0,50.5,93,74,47,30.11,30.01,5,0,5,0.00
2012-9-17,77.7,64.6,52.5,59.0,54.5,50.5,97,72,40,30.10,30.00,8,0,8,0.00
2012-9-18,75.7,69.9,61.9,71.6,67.2,57.4,98,91,85,30.02,29.62,21,2,25,2.72
2012-9-19,70.3,63.1,53.4,67.1,53.9,45.1,98,74,42,30.16,29.71,9,0,9,0.00
2012-9-20,69.1,59.8,50.5,59.5,52.9,44.6,89,78,69,30.20,30.10,8,0,9,0.00
2012-9-21,72.9,62.3,55.4,61.0,56.9,53.4,95,84,56,30.11,29.99,7,0,7,0.00
2012-9-22,73.6,64.4,55.0,68.4,61.5,54.0,97,90,78,30.00,29.77,11,0,11,0.30
2012-9-23,69.3,60.4,50.7,61.9,52.4,44.2,97,77,45,30.09,29.83,7,0,7,0.00
2012-9-24,67.5,55.8,48.4,50.5,46.9,43.0,94,74,46,30.15,30.07,6,0,6,0.00
2012-9-25,74.5,60.2,45.9,58.1,50.2,43.7,97,72,41,30.18,30.10,11,1,11,0.00
2012-9-26,75.2,67.2,62.4,65.5,61.0,56.1,90,81,70,30.13,29.99,6,0,7,0.00
2012-9-27,75.4,66.8,63.0,65.5,62.1,53.8,97,85,67,30.16,30.02,6,0,7,0.04
2012-9-28,66.4,62.7,59.4,65.3,61.2,53.8,98,95,71,30.16,29.92,8,0,8,3.27
2012-9-29,63.1,59.5,57.2,58.5,57.1,55.4,95,92,82,29.93,29.85,4,0,5,0.00
2012-9-30,69.3,58.2,51.6,57.2,54.4,49.6,97,88,59,29.86,29.74,6,0,6,0.12
2012-10-1,71.4,58.4,48.0,57.7,52.2,46.4,96,81,57,29.96,29.79,6,0,8,0.00
2012-10-2,67.1,61.2,56.8,62.6,59.5,55.0,98,94,76,30.02,29.94,5,0,5,0.79
2012-10-3,67.6,65.6,63.1,67.3,65.2,62.6,99,99,98,30.10,29.96,2,0,2,1.00
2012-10-4,69.6,67.3,62.6,69.1,66.9,62.1,99,99,99,30.12,30.01,4,0,4,0.53
2012-10-5,78.8,66.5,59.4,66.2,62.3,59.0,100,88,56,30.05,29.90,4,0,4,0.01
2012-10-6,77.7,62.9,52.2,65.3,57.3,45.7,98,83,64,29.97,29.73,10,0,10,0.00
2012-10-7,53.6,49.8,44.4,48.9,45.4,40.8,96,85,66,30.10,29.96,3,0,3,0.25
2012-10-8,54.1,48.5,41.4,48.9,45.3,40.6,98,89,68,30.27,30.09,4,0,4,0.02
2012-10-9,58.1,53.7,47.8,53.1,50.1,45.7,96,87,82,30.23,30.07,7,0,7,0.00
2012-10-10,66.4,56.6,51.4,61.5,53.0,43.0,99,88,65,30.07,29.77,7,0,7,0.24
2012-10-11,60.4,51.0,44.4,43.7,40.5,35.8,85,69,42,30.18,29.93,9,0,9,0.00
2012-10-12,57.4,47.4,38.5,46.4,40.1,30.6,92,76,57,30.42,30.04,8,0,8,0.00
2012-10-13,55.2,43.7,32.5,42.8,32.4,26.1,91,67,36,30.51,30.29,7,0,7,0.00
2012-10-14,71.1,59.9,49.6,58.5,52.1,42.8,87,76,57,30.29,29.93,10,1,12,0.00
2012-10-15,71.4,64.3,58.5,63.9,60.7,57.6,97,88,74,29.93,29.61,9,0,9,0.25
2012-10-16,60.3,52.7,42.4,57.6,44.4,39.7,97,74,52,29.91,29.62,9,0,9,0.00
2012-10-17,60.3,48.6,38.7,48.6,42.6,37.0,96,81,55,30.01,29.90,4,0,4,0.00
2012-10-18,66.7,54.7,42.6,57.4,50.0,41.5,98,85,61,30.04,29.94,10,0,10,0.01
2012-10-19,65.5,63.6,59.7,64.9,62.7,56.8,99,97,86,29.94,29.66,11,0,11,1.48
2012-10-20,71.2,62.2,50.5,64.2,55.7,43.3,99,81,45,29.81,29.64,6,0,7,0.01
2012-10-21,65.1,54.3,46.0,48.4,44.6,42.6,90,71,47,29.99,29.80,7,0,10,0.00
2012-10-22,67.3,55.9,47.7,50.5,46.4,42.6,88,71,49,30.08,29.97,6,0,6,0.00
2012-10-23,63.1,55.6,48.9,55.0,50.9,45.7,96,85,62,30.11,30.04,3,0,3,0.03
2012-10-24,57.0,55.4,53.8,55.6,53.4,51.1,97,93,86,30.19,30.08,4,0,4,0.02
2012-10-25,60.4,56.5,53.1,54.9,52.8,50.7,94,87,78,30.27,30.19,4,0,4,0.00
2012-10-26,65.1,59.9,54.0,59.4,56.8,52.0,96,90,78,30.22,30.10,4,0,4,0.00
2012-10-27,64.8,60.7,57.7,59.5,56.8,54.1,95,87,76,30.10,29.90,7,0,7,0.00
2012-10-28,58.8,56.9,54.5,54.9,50.0,45.1,90,78,68,29.91,29.65,15,1,16,0.00
2012-10-29,62.2,56.6,53.2,61.3,53.1,48.4,98,88,80,29.66,28.58,30,3,31,0.38
2012-10-31,49.8,47.9,43.5,41.4,40.4,39.0,84,75,69,29.57,29.51,7,0,23,0.02
2012-11-1,54.7,46.4,39.0,43.5,40.3,37.0,94,80,64,29.60,29.53,7,0,7,0.02
2012-11-2,55.2,47.9,42.4,42.1,38.5,32.7,83,71,48,29.73,29.58,7,0,7,0.00
2012-11-3,53.6,45.0,40.8,36.9,34.5,32.9,77,67,49,29.91,29.72,8,1,8,0.00
2012-11-4,53.4,43.5,34.7,37.6,34.4,31.6,91,71,53,29.97,29.89,6,0,7,0.00
2012-11-5,46.2,39.7,32.4,33.6,28.0,21.9,73,63,50,30.17,29.96,11,0,12,0.00
2012-11-6,44.2,35.3,27.1,26.4,22.7,19.4,83,61,41,30.23,30.07,10,0,10,0.00
2012-11-7,40.6,36.1,31.5,33.4,29.2,19.8,96,77,50,30.08,29.75,15,1,15,0.11
2012-11-8,42.6,36.9,31.6,35.2,30.6,28.4,95,78,63,29.89,29.72,9,0,11,0.67
2012-11-9,54.1,42.5,32.4,35.2,30.4,24.6,86,64,39,30.19,29.88,8,0,8,0.24
2012-11-10,53.4,45.3,36.3,44.6,39.8,33.8,93,81,65,30.42,30.18,3,0,4,0.00
2012-11-11,63.7,50.2,40.6,53.1,46.6,39.0,98,88,66,30.49,30.41,7,0,7,0.00
2012-11-12,66.6,56.2,46.2,59.5,54.1,45.1,98,93,74,30.46,30.18,10,0,10,0.00
2012-11-13,60.1,47.8,37.9,58.6,44.5,30.0,97,88,73,30.44,30.10,8,0,8,0.13
2012-11-14,49.5,39.8,33.3,34.7,30.1,26.6,82,69,51,30.51,30.43,7,0,8,0.00
2012-11-15,45.3,37.6,32.5,32.7,29.5,26.4,87,73,51,30.46,30.29,11,0,11,0.00
2012-11-16,49.3,39.2,34.0,33.8,29.5,26.4,86,69,50,30.43,30.28,7,0,7,0.00
2012-11-17,54.0,41.0,33.3,37.0,32.0,27.7,85,71,49,30.62,30.43,11,0,11,0.00
2012-11-18,49.5,39.7,31.8,38.7,33.9,28.8,92,80,63,30.67,30.56,8,0,8,0.00
2012-11-19,50.0,40.4,34.5,41.0,35.4,31.3,93,82,69,30.57,30.24,6,0,6,0.00
2012-11-20,51.3,40.9,33.1,38.1,35.3,31.3,95,82,49,30.24,30.11,6,0,6,0.00
2012-11-21,54.1,42.3,34.0,38.5,34.6,30.7,93,76,42,30.23,30.13,6,0,7,0.00
2012-11-22,54.0,42.4,34.5,44.4,37.9,32.4,95,85,66,30.26,30.12,6,0,6,0.00
2012-11-23,55.9,44.5,33.4,46.9,41.3,32.2,98,90,66,30.12,29.66,8,0,8,0.01
2012-11-24,48.6,41.1,35.2,45.9,26.8,19.4,95,57,45,29.81,29.64,13,1,14,0.00
2012-11-25,42.4,36.5,32.7,27.1,23.3,18.7,69,59,49,29.94,29.81,10,1,10,0.00
2012-11-26,49.6,39.2,30.7,28.8,25.3,23.0,79,59,36,30.24,29.93,7,0,7,0.00
2012-11-27,37.2,35.0,30.4,34.5,32.4,24.6,97,91,78,30.30,30.19,4,0,4,0.57
2012-11-28,41.7,34.7,28.6,34.7,28.6,24.3,96,79,57,30.25,30.15,5,0,5,0.01
2012-11-29,45.0,36.2,28.2,29.5,26.9,24.6,86,70,47,30.35,30.24,7,0,7,0.00
2012-11-30,44.6,37.9,30.2,37.2,30.6,26.2,87,75,58,30.46,30.29,8,0,9,0.00
2012-12-1,40.5,37.0,34.0,39.2,32.4,26.8,95,83,74,30.54,30.42,9,0,9,0.00
2012-12-2,50.7,44.7,40.5,47.7,43.3,39.2,98,95,84,30.42,30.10,5,0,5,0.14
2012-12-3,60.8,49.2,40.6,52.3,45.6,39.4,99,89,64,30.26,30.08,5,0,5,0.01
2012-12-4,60.6,49.9,40.6,56.1,48.4,39.4,98,95,84,30.27,29.96,6,0,6,0.07
2012-12-5,54.1,47.5,34.9,53.1,38.3,23.2,99,72,48,30.20,29.89,6,1,12,0.01
2012-12-6,41.2,32.5,27.7,24.4,21.8,18.1,84,66,46,30.35,30.19,7,0,7,0.00
2012-12-7,42.6,36.5,27.7,41.9,34.3,23.5,97,92,84,30.27,30.01,2,0,2,0.16
2012-12-8,49.6,46.2,42.4,49.1,45.5,41.7,98,97,96,30.01,29.85,3,0,4,0.30
2012-12-9,47.7,43.8,41.5,46.9,41.4,36.3,98,92,76,30.25,29.98,15,0,15,0.43
2012-12-10,58.1,52.0,44.1,57.7,51.6,43.3,99,99,97,30.01,29.53,9,0,9,0.11
2012-12-11,55.2,44.6,39.4,54.9,37.8,29.5,99,78,58,30.19,29.55,7,0,8,0.06
2012-12-12,43.5,36.7,31.3,31.3,29.1,27.3,89,75,54,30.43,30.18,5,0,5,0.00
2012-12-13,46.8,35.7,30.0,32.4,28.6,27.0,91,77,47,30.47,30.30,6,0,6,0.00
2012-12-14,50.7,37.4,27.9,30.4,28.4,25.9,93,72,43,30.31,30.13,8,0,8,0.00
2012-12-15,46.6,37.1,30.7,35.2,31.4,28.0,93,80,58,30.32,30.20,6,0,6,0.00
2012-12-16,44.1,42.2,39.0,41.7,39.8,35.2,97,91,81,30.21,29.90,15,1,17,0.28
2012-12-17,45.1,41.3,39.0,44.6,40.6,38.3,98,97,97,29.91,29.62,9,1,10,0.34
2012-12-18,54.7,47.3,43.5,50.4,44.7,36.5,98,91,76,29.62,29.44,9,1,10,0.88
2012-12-19,48.4,42.6,32.9,36.5,31.3,27.5,80,64,50,30.11,29.57,12,1,12,0.00
2012-12-20,43.9,37.0,28.9,41.7,31.7,25.9,92,81,62,30.20,29.83,9,0,10,0.02
2012-12-21,55.9,45.1,37.6,55.0,40.7,30.0,98,85,71,29.83,29.09,16,2,18,1.53
2012-12-22,38.8,36.5,34.9,33.1,26.7,21.4,91,68,53,29.79,29.30,15,2,15,0.01
2012-12-23,42.8,36.7,31.3,29.1,24.8,20.8,75,62,48,29.94,29.78,10,1,11,0.00
2012-12-24,39.2,33.3,26.4,32.2,25.9,22.5,95,75,57,30.09,29.94,4,0,4,0.00
2012-12-25,40.3,35.1,30.0,35.6,31.9,25.5,97,88,78,30.26,29.91,6,0,7,0.14
2012-12-26,36.1,31.0,26.2,35.1,26.7,20.5,96,84,66,30.29,29.51,21,2,22,0.00
2012-12-27,38.7,35.6,29.7,37.9,33.0,22.6,97,90,74,29.82,29.28,19,2,20,0.15
2012-12-28,38.8,32.2,27.3,28.6,25.2,21.6,89,75,65,30.08,29.80,16,1,16,0.00
2012-12-29,33.4,30.8,26.4,32.2,28.4,23.9,95,91,84,30.06,29.49,5,0,5,0.00
2012-12-30,34.9,30.2,26.8,28.6,21.0,17.1,92,69,50,30.14,29.56,14,2,16,0.00
2012-12-31,38.7,33.0,26.1,26.6,22.8,17.6,75,66,59,30.17,29.86,8,1,8,0.03
2013-1-1,38.7,35.5,25.5,30.9,25.3,12.2,76,66,55,29.99,29.81,8,1,10,0.09